Mullan Pass, ID

10:29 PM PST on January 19, 2018 (GMT -0800)
Mullan Pass

Weather History for KMLP - February, 2013

Change the Weather History Date:

Thursday, February 14, 2013

  Actual Average (K3TH) Record (K3TH)
Temperature  
Mean Temperature 24 °F -  
Max Temperature 28 °F 37 °F 39 °F (1997)
Min Temperature 19 °F 25 °F 14 °F (2001)
Degree Days  
Heating Degree Days 42    
Moisture  
Dew Point 21 °F    
Average Humidity 89    
Maximum Humidity 96    
Minimum Humidity 80    
Precipitation  
Precipitation 0.00 in - - ()
Sea Level Pressure  
Sea Level Pressure 30.34 in    
Wind  
Wind Speed 5 mph (NW)    
Max Wind Speed 10 mph    
Max Gust Speed -    
Visibility 7 miles    
Events Fog    
Averages and records for this station are not official NWS values.
T = Trace of Precipitation, MM = Missing Value Source: NWS Daily Summary

Daily Weather History Graph

Daily Weather History Graph

Search for Another Location

Airport or City:

Trip Planner

Search our weather history database for the weather conditions in past years. The results will help you decide how hot, cold, wet, or windy it might be!

Date:

Astronomy

Feb. 14, 2013 Rise Set
Actual Time 6:49 AM PST 5:05 PM PST
Civil Twilight 6:17 AM PST 5:37 PM PST
Nautical Twilight 5:41 AM PST 6:13 PM PST
Astronomical Twilight 5:06 AM PST 6:48 PM PST
Moon 8:29 AM PST (2/14) 10:38 PM PST (2/14)
Length of Visible Light 11h 19m
Length of Day
10h 16m
Waxing Crescent, 22% of the Moon is Illuminated
Feb 14
Waxing Crescent
Feb 17
First Quarter
Feb 25
Full
Mar 4
Last Quarter
Mar 11
New

Hourly Weather History & Observations

Time (PST) Temp. Windchill Dew Point Humidity Pressure Visibility Wind Dir Wind Speed Gust Speed Precip Events Conditions
12:06 AM 21.2 °F 14.9 °F 19.4 °F 93% 30.19 in 10.0 mi NW 4.6 mph - N/A   Mostly Cloudy
12:17 AM 21.2 °F 14.9 °F 19.4 °F 93% 30.20 in 10.0 mi NW 4.6 mph - N/A   Overcast
12:25 AM 21.2 °F 14.9 °F 19.4 °F 93% 30.20 in 10.0 mi NW 4.6 mph - N/A   Mostly Cloudy
12:53 AM 21.9 °F 14.5 °F 19.9 °F 92% 30.31 in 10.0 mi Variable 5.8 mph - N/A   Scattered Clouds
1:53 AM 21.0 °F 16.2 °F 19.0 °F 92% 30.33 in 10.0 mi NW 3.5 mph - N/A   Clear
2:18 AM 21.2 °F 16.4 °F 19.4 °F 93% 30.20 in 8.0 mi Variable 3.5 mph - N/A   Partly Cloudy
2:53 AM 21.0 °F 13.4 °F 18.0 °F 88% 30.34 in 10.0 mi NW 5.8 mph - N/A   Partly Cloudy
3:53 AM 21.0 °F 11.4 °F 18.0 °F 88% 30.36 in 10.0 mi NW 8.1 mph - N/A   Clear
4:51 AM 19.4 °F 12.8 °F 17.6 °F 93% 30.22 in 10.0 mi NNW 4.6 mph - N/A   Partly Cloudy
4:53 AM 19.9 °F 14.9 °F 18.0 °F 92% 30.38 in 10.0 mi NNW 3.5 mph - N/A   Partly Cloudy
5:53 AM 21.0 °F - 18.0 °F 88% 30.38 in 10.0 mi Calm Calm - N/A   Mostly Cloudy
6:20 AM 21.2 °F 16.4 °F 19.4 °F 93% 30.23 in 10.0 mi WNW 3.5 mph - N/A   Overcast
6:53 AM 21.9 °F 17.2 °F 19.0 °F 89% 30.39 in 4.0 mi WNW 3.5 mph - N/A   Overcast
7:06 AM 21.2 °F 14.9 °F 19.4 °F 93% 30.24 in 1.8 mi NW 4.6 mph - N/A   Overcast
7:15 AM 21.2 °F 14.9 °F 19.4 °F 93% 30.25 in 1.2 mi NW 4.6 mph - N/A   Overcast
7:30 AM 21.2 °F 14.9 °F 19.4 °F 93% 30.25 in 1.8 mi NW 4.6 mph - N/A   Overcast
7:48 AM 21.2 °F 13.6 °F 19.4 °F 93% 30.26 in 1.0 mi NNW 5.8 mph - N/A   Mist
7:53 AM 21.9 °F 14.5 °F 19.0 °F 89% 30.41 in 1.2 mi NNW 5.8 mph - N/A   Overcast
8:07 AM 23.0 °F 17.0 °F 19.4 °F 86% 30.26 in 0.8 mi NNW 4.6 mph - N/A   Mist
8:27 AM 23.0 °F 17.0 °F 19.4 °F 86% 30.26 in 1.0 mi Variable 4.6 mph - N/A   Mist
8:45 AM 24.8 °F 17.9 °F 19.4 °F 80% 30.26 in 0.5 mi Variable 5.8 mph - N/A Fog Light Freezing Fog
8:53 AM 24.1 °F 18.2 °F 21.0 °F 88% 30.40 in 0.5 mi NNW 4.6 mph - N/A Fog Light Freezing Fog
9:11 AM 24.8 °F 17.9 °F 19.4 °F 80% 30.27 in 1.5 mi Variable 5.8 mph - N/A   Overcast
9:13 AM 24.8 °F 16.9 °F 19.4 °F 80% 30.27 in 3.0 mi Variable 6.9 mph - N/A   Overcast
9:46 AM 24.8 °F 16.1 °F 21.2 °F 86% 30.28 in 10.0 mi NW 8.1 mph - N/A   Overcast
9:53 AM 25.0 °F 17.1 °F 21.0 °F 85% 30.42 in 10.0 mi Variable 6.9 mph - N/A   Overcast
10:53 AM 26.1 °F - 23.0 °F 88% 30.44 in 10.0 mi Calm Calm - N/A   Mostly Cloudy
11:18 AM 26.6 °F 21.2 °F 21.2 °F 80% 30.30 in 10.0 mi NNW 4.6 mph - N/A   Mostly Cloudy
11:53 AM 28.0 °F 22.8 °F 23.0 °F 81% 30.44 in 10.0 mi Variable 4.6 mph - N/A   Overcast
12:53 PM 26.1 °F 20.5 °F 21.9 °F 84% 30.45 in 10.0 mi Variable 4.6 mph - N/A   Overcast
1:31 PM 24.8 °F 19.1 °F 21.2 °F 86% 30.29 in 10.0 mi Variable 4.6 mph - N/A   Overcast
1:40 PM 24.8 °F 17.9 °F 21.2 °F 86% 30.29 in 10.0 mi Variable 5.8 mph - N/A   Overcast
1:53 PM 25.0 °F 18.1 °F 21.0 °F 85% 30.45 in 10.0 mi Variable 5.8 mph - N/A   Overcast
2:02 PM 24.8 °F 17.9 °F 21.2 °F 86% 30.30 in 10.0 mi Variable 5.8 mph - N/A   Overcast
2:13 PM 24.8 °F 20.5 °F 21.2 °F 86% 30.30 in - Variable 3.5 mph - N/A   Overcast
2:22 PM 24.8 °F - 21.2 °F 86% 30.30 in 10.0 mi Calm Calm - N/A   Overcast
2:53 PM 24.1 °F 19.7 °F 21.0 °F 88% 30.46 in 10.0 mi Variable 3.5 mph - N/A   Overcast
3:31 PM 24.8 °F 19.1 °F 21.2 °F 86% 30.31 in 10.0 mi NW 4.6 mph - N/A   Overcast
3:53 PM 24.1 °F 18.2 °F 21.9 °F 91% 30.47 in 10.0 mi Variable 4.6 mph - N/A   Overcast
4:33 PM 23.0 °F 18.4 °F 21.2 °F 93% 30.32 in 10.0 mi Variable 3.5 mph - N/A   Overcast
4:48 PM 23.0 °F 17.0 °F 21.2 °F 93% 30.32 in 10.0 mi NW 4.6 mph - N/A   Overcast
4:49 PM 23.0 °F 17.0 °F 21.9 °F 96% 30.49 in 10.0 mi NW 4.6 mph - N/A   Overcast
5:03 PM 23.0 °F 15.8 °F 21.2 °F 93% 30.32 in 10.0 mi Variable 5.8 mph - N/A   Overcast
5:16 PM 23.0 °F 17.0 °F 21.2 °F 93% 30.32 in 2.0 mi Variable 4.6 mph - N/A   Overcast
5:20 PM 23.0 °F 14.7 °F 21.2 °F 93% 30.32 in 1.2 mi NW 6.9 mph - N/A   Overcast
5:28 PM 23.0 °F 15.8 °F 21.2 °F 93% 30.32 in 0.8 mi Variable 5.8 mph - N/A   Overcast
5:39 PM 24.8 °F 20.5 °F 21.2 °F 86% 30.32 in 0.5 mi NNW 3.5 mph - N/A Fog Light Freezing Fog
5:53 PM 24.1 °F 18.2 °F 23.0 °F 96% 30.47 in 0.5 mi Variable 4.6 mph - N/A Fog Light Freezing Fog
6:43 PM 24.8 °F 19.1 °F 21.2 °F 86% 30.32 in 1.2 mi Variable 4.6 mph - N/A   Overcast
6:51 PM 24.8 °F 17.9 °F 21.2 °F 86% 30.32 in 1.5 mi Variable 5.8 mph - N/A   Overcast
6:53 PM 24.1 °F 15.2 °F 21.9 °F 91% 30.48 in 2.0 mi WNW 8.1 mph - N/A   Overcast
7:05 PM 24.8 °F 16.9 °F 21.2 °F 86% 30.32 in 8.0 mi Variable 6.9 mph - N/A   Overcast
7:14 PM 24.8 °F 17.9 °F 21.2 °F 86% 30.33 in 8.0 mi Variable 5.8 mph - N/A   Overcast
7:53 PM 24.1 °F 18.2 °F 21.9 °F 91% 30.49 in 10.0 mi Variable 4.6 mph - N/A   Overcast
8:53 PM 24.1 °F 13.7 °F 21.9 °F 91% 30.50 in 10.0 mi NW 10.4 mph - N/A   Overcast
9:25 PM 24.8 °F 19.1 °F 21.2 °F 86% 30.36 in 10.0 mi Variable 4.6 mph - N/A   Overcast
9:53 PM 24.1 °F 18.2 °F 21.9 °F 91% 30.50 in 2.5 mi NNW 4.6 mph - N/A   Overcast
10:01 PM 24.8 °F 16.9 °F 21.2 °F 86% 30.35 in 1.5 mi NW 6.9 mph - N/A   Overcast
10:10 PM 24.8 °F 16.1 °F 21.2 °F 86% 30.35 in 3.0 mi NW 8.1 mph - N/A   Overcast
10:22 PM 24.8 °F 17.9 °F 21.2 °F 86% 30.36 in 10.0 mi NW 5.8 mph - N/A   Overcast
10:53 PM 24.1 °F 16.0 °F 21.9 °F 91% 30.51 in 10.0 mi NW 6.9 mph - N/A   Overcast
11:31 PM 24.8 °F 19.1 °F 21.2 °F 86% 30.37 in 10.0 mi NW 4.6 mph - N/A   Overcast
11:53 PM 24.1 °F 17.0 °F 21.9 °F 91% 30.50 in 2.5 mi Variable 5.8 mph - N/A   Overcast